カタログに戻る

YAOGAN-32 B

運用中軍事SSO
NORAD 43643·PAYLOAD·🇨🇳 China

打ち上げ Oct 9, 2018 から Jiuquan Satellite Launch Center

Loading…

次のパス (今後24時間)

TLE

最新Source: Space-Track

元期: Sep 14, 2026, 15:16 UTC

1 43643U 18077B   26257.63670623  .00000154  00000-0  39024-4 0  9990
2 43643  98.1436 285.0512 0004757 308.3355  51.7419 14.63265319422911

AllMySatでYAOGAN-32 Bをリアルタイム追跡

Download on the App Store